Погода в Заречанке

Украина / Хмельницкая область     48°53′17″N   26°22′32″E
темп.,
°C
ветер,
м/с
пор.,
м/с
влажн.,
%
обл.,
%
осадки,
мм/ч
давл.,
гПа
погр.,
м
27 июля, вт
вт2700:00+18юв497460 0.0 1018138
03:00+17юв487431 0.1 1017140
06:00+17ююв4117677 0.1 1017190
09:00+21ю477043 0.1 1017250
12:00+26ю456176 0.0 1017440
15:00+26ю466011 0.0 1016556
18:00+24ю7117254 0.2 1016576
21:00+21ююв49822 0.6 1015134
28 июля, ср
ср2800:00+20ю49840 0.0 1015123
03:00+19з358521 0.0 101574
06:00+18зсз34895 0.0 101552
09:00+24зсз23735 0.0 1016303
12:00+28зсз24535 0.0 1015883
15:00+31юз344485 0.0 10141620
18:00+31ю23452 0.0 10121489
21:00+25ююв336532 0.0 101223
29 июля, чт
чт2900:00+21всв358418 0.2 101377
03:00+19юв38890 0.2 1012184
06:00+19ю12740 0.0 101112
09:00+24сз46683 0.0 1012349
12:00+27сз445823 0.0 10121042
15:00+29сз445151 0.0 10121748
18:00+29сз445218 0.0 10111685
21:00+22сз478217 1.6 1012118
30 июля, пт
пт3000:00+19ссз36920 0.4 1013114
03:00+18ссз33920 0.4 101442
06:00+17ссз22910 0.0 101412
09:00+22ююв00751 0.0 1013265
12:00+26ю22560 0.0 10121030
15:00+29ю32450 0.0 10111360
18:00+29юв45508 0.0 10091149
21:00+23юв2267100 0.0 100915
31 июля, сб
сб3100:00+18вюв2291100 0.4 101037
03:00+18ссз229493 0.4 101028
06:00+17ссв22955 0.0 101026
09:00+22св22785 0.0 1010351
12:00+27ссз11585 0.0 1010934
15:00+29сз114912 0.0 10091554
18:00+29св114810 0.0 10081536
21:00+25в116117 0.1 100813